Cut Bank, MT

5:00 AM MDT on October 17, 2019 (GMT -0600)
Cut Bank Municipal

Weather History for KCTB - August, 2019

Change the Weather History Date:

Wednesday, August 28, 2019

  Actual Average Record
Temperature  
Mean Temperature 63 °F 60 °F  
Max Temperature 81 °F 75 °F 95 °F (2012)
Min Temperature 45 °F 45 °F 30 °F (1909)
Degree Days  
Heating Degree Days 2 6  
Month to date heating degree days 72 90  
Since 1 June heating degree days 387 409  
Since 1 July heating degree days 165 176  
Cooling Degree Days 0 1  
Month to date cooling degree days 51 62  
Year to date cooling degree days 104 151  
Since 1 June cooling degree days 104 149  
Growing Degree Days 13 (Base 50)    
Moisture  
Dew Point 40 °F    
Average Humidity 43    
Maximum Humidity 68    
Minimum Humidity 22    
Precipitation  
Precipitation 0.00 in 0.04 in 0.94 in (1951)
Month to date precipitation 1.38 1.07  
Year to date precipitation 8.79 8.54  
Snow  
Snow - - - ()
Snow Depth 0.00 in    
Sea Level Pressure  
Sea Level Pressure 29.93 in    
Wind  
Wind Speed 8 mph ()    
Max Wind Speed 23 mph    
Max Gust Speed 28 mph    
Visibility 10.0 miles    
Events      
T = Trace of Precipitation, MM = Missing Value Source: Averaged Metar Reports

Daily Weather History Graph

Daily Weather History Graph

Search for Another Location

Airport or City:

Astronomy

Aug. 28, 2019 Rise Set
Actual Time 6:40 AM MDT 8:19 PM MDT
Civil Twilight 6:07 AM MDT 8:52 PM MDT
Nautical Twilight 5:27 AM MDT 9:32 PM MDT
Astronomical Twilight 4:42 AM MDT 10:16 PM MDT
Moon 4:01 AM MDT (8/28) 7:46 PM MDT (8/28)
Length of Visible Light 14h 44m
Length of Day
13h 38m
Waning Crescent, 4% of the Moon is Illuminated
Aug 28
Waning Crescent
Aug 30
New
Sep 5
First Quarter
Sep 13
Full
Sep 21
Last Quarter

Hourly Weather History & Observations

Time (MDT) Temp. Dew Point Humidity Pressure Visibility Wind Dir Wind Speed Gust Speed Precip Events Conditions
12:56 AM 52.0 °F 37.0 °F 57% 29.96 in 10.0 mi NW 4.6 mph - N/A   Clear
1:56 AM 50.0 °F 37.0 °F 61% 29.96 in 10.0 mi North 5.8 mph - N/A   Clear
2:56 AM 50.0 °F 37.0 °F 61% 29.94 in 10.0 mi North 5.8 mph - N/A   Clear
3:56 AM 46.9 °F 37.0 °F 68% 29.94 in 10.0 mi NW 4.6 mph - N/A   Clear
4:56 AM 52.0 °F 37.0 °F 57% 29.92 in 10.0 mi WSW 5.8 mph - N/A   Clear
5:56 AM 54.0 °F 37.0 °F 53% 29.91 in 10.0 mi West 6.9 mph - N/A   Clear
6:56 AM 55.9 °F 37.0 °F 49% 29.90 in 10.0 mi West 3.5 mph - N/A   Clear
7:56 AM 57.9 °F 39.0 °F 49% 29.90 in 10.0 mi WSW 9.2 mph - N/A   Clear
8:56 AM 69.1 °F 37.9 °F 32% 29.89 in 10.0 mi WSW 16.1 mph - N/A   Clear
9:56 AM 75.0 °F 37.9 °F 26% 29.89 in 10.0 mi West 11.5 mph - N/A   Clear
10:56 AM 78.1 °F 37.9 °F 24% 29.89 in 10.0 mi WNW 11.5 mph - N/A   Clear
11:56 AM 80.1 °F 37.9 °F 22% 29.88 in 10.0 mi North 18.4 mph 26.5 mph N/A   Clear
12:56 PM 78.1 °F 39.9 °F 25% 29.90 in 10.0 mi North 19.6 mph 25.3 mph N/A   Clear
1:56 PM 80.1 °F 39.9 °F 24% 29.91 in 10.0 mi North 8.1 mph 21.9 mph N/A   Clear
2:56 PM 80.1 °F 41.0 °F 25% 29.90 in 10.0 mi North 15.0 mph 18.4 mph N/A   Clear
3:56 PM 80.1 °F 42.1 °F 26% 29.89 in 10.0 mi NNE 17.3 mph - N/A   Clear
4:56 PM 77.0 °F 43.0 °F 30% 29.89 in 10.0 mi NNE 18.4 mph 21.9 mph N/A   Clear
5:56 PM 75.0 °F 42.1 °F 31% 29.90 in 10.0 mi NNE 13.8 mph - N/A   Clear
6:56 PM 73.0 °F 43.0 °F 34% 29.91 in 10.0 mi NE 12.7 mph - N/A   Clear
7:56 PM 66.9 °F 44.1 °F 44% 29.94 in 10.0 mi NE 15.0 mph - N/A   Clear
8:56 PM 61.0 °F 43.0 °F 52% 29.98 in 10.0 mi NNE 12.7 mph - N/A   Clear
9:56 PM 57.0 °F 41.0 °F 55% 30.02 in 10.0 mi North 9.2 mph - N/A   Clear
10:56 PM 55.0 °F 41.0 °F 59% 30.04 in 10.0 mi North 8.1 mph - N/A   Clear
11:56 PM 53.1 °F 39.9 °F 61% 30.05 in 10.0 mi North 8.1 mph - N/A   Clear